Current weather by "City, St" or "zip code"  
 

Current Conditions: Mesa / Falcon Field, AZ

Fair


70.0 F

Last Updated on Oct 30 2020, 10:54 pm MST
Humidity: 22%
Wind Speed: N 3.5 mph
Barometer 29.99 in
Dewpoint: 28.9 F
Visibility: 10.00 mi
Precip: --
Heat Index: NA
Wind Chill: NA
Current conditions at:

Mesa / Falcon Field, AZ (KFFZ)

Lat: 33.46667 Lon: 111.73333

Local Radar Image active severe weather and emergency alerts image image weather storm and storm spotter reports image weather observation monitoring service image
Local
Radar
Active
Alerts
Storm Reports Obs
Monitoring

Sign-up For Email & Text Message Weather Alert Notification Services



Advertise Here

Observation History for Mesa / Falcon Field, AZ


Time Wind
(mph)
Vis
(mi)
Weather Precip (in) Temperature (F) Relative
Humidity
Wind
Chill
(F)
Heat
Index
(F)
Pressure
Air Dwpt altimeter
(in)
sea level
(mb)
Rmks
10:54 pm MST N 3.5 10.00 Fair -- 70.0 28.9 22% NA NA 29.99 1013.3
9:54 pm MST NE 5.8 9.00 Fair -- 69.0 33.1 26% NA NA 29.98 1013.3
8:54 pm MST N 0.0 10.00 Fair -- 71.0 36.0 28% NA NA 29.97 1012.8
7:54 pm MST N 3.5 10.00 Fair -- 74.0 35.1 24% NA NA 29.95 1012.4
6:54 pm MST N 0.0 10.00 Fair -- 77.0 33.1 20% NA NA 29.94 1012.1
5:54 pm MST W 4.6 10.00 Fair -- 81.0 32.0 17% NA 79 29.93 1011.5
4:54 pm MST W 4.6 10.00 Fair -- 84.0 30.9 15% NA 81 29.92 1010.9
3:54 pm MST N 0.0 10.00 Fair -- 85.0 30.0 14% NA 82 29.92 1011.2
2:54 pm MST N 0.0 10.00 Fair -- 86.0 30.0 13% NA 83 29.93 1011.5
1:54 pm MST 3.5 10.00 Fair -- 85.0 30.0 14% NA 82 29.96 1012.3
12:54 pm MST N 0.0 10.00 Fair -- 82.0 30.9 16% NA 80 29.99 1013.3
11:54 am MST N 4.6 10.00 Fair -- 83.0 30.9 15% NA 80 30.02 1014.5
10:54 am MST NE 8.1 10.00 Fair -- 81.0 32.0 17% NA 79 30.05 1015.4
9:54 am MST NE 10.4 10.00 Fair -- 77.0 32.0 19% NA NA 30.06 1015.7
8:54 am MST NE 10.4 10.00 Fair -- 73.0 33.1 23% NA NA 30.06 1016.2
7:54 am MST NE 9.2 10.00 Fair -- 68.0 32.0 26% NA NA 30.05 1015.8
6:54 am MST NE 8.1 10.00 Fair -- 65.0 32.0 29% NA NA 30.03 1015.2
5:54 am MST N 5.8 10.00 Fair -- 61.0 34.0 36% 61 NA 30.03 1014.9
4:54 am MST NE 6.9 10.00 Fair -- 68.0 32.0 26% NA NA 30.01 1014.3
3:54 am MST NE 6.9 10.00 Fair -- 69.0 30.9 24% NA NA 30.01 1014.0
2:54 am MST NE 8.1 10.00 Fair -- 69.0 30.9 24% NA NA 30.01 1014.1
1:54 am MST NE 5.8 10.00 Fair -- 69.0 30.9 24% NA NA 30.01 1014.2
12:54 am MST NE 6.9 10.00 Fair -- 70.0 30.0 23% NA NA 30.02 1014.5
11:54 pm MST NE 8.1 10.00 Fair -- 71.0 30.0 22% NA NA 30.02 1014.5

Regional Weather Observation


Phoenix, Phoenix-Deer Valley Municipal Airport, AZ (KDVT)

Fair
68.0 F

Mesa / Falcon Field, AZ (KFFZ)

Fair
70.0 F

Phoenix, Phoenix Sky Harbor International Airport, AZ (KPHX)

Partly Cloudy
68.0 F

Chandler, Chandler Municipal Airport, AZ (KCHD)

Clear
68.0 F

Glendale, Glendale Municipal Airport, AZ (KGEU)

Mostly Cloudy
72.0 F

Phoenix-Mesa Gateway Airport, AZ (KIWA)

Mostly Cloudy
61.0 F